Terminal Aerodrome Forecast
Issued by NWS Grand Junction, CO

Home | Current Version | Previous Version | Text Only | Print | Product List | Glossary On
Versions: 1 2 3 4 5 6 7 8 9 10 11 12 13 14 15 16 17 18 19 20 21 22 23 24 25 26 27 28 29
000
FTUS45 KGJT 142321
TAFGJT
TAF
KGJT 142321Z 1500/1524 29007KT P6SM FEW090 SCT150
     FM150200 05005KT P6SM FEW150
     FM150800 10010KT P6SM FEW150
     FM151600 06006KT P6SM FEW150
     FM151900 29007KT P6SM FEW100 SCT150=

USA.gov is the U.S. government's official web portal to all federal, state and local government web resources and services.